Imperial, CA

8:19 PM PDT on July 25, 2017 (GMT -0700)
Imperial County

Weather History for KIPL - August, 2013

Change the Weather History Date:

Tuesday, August 27, 2013

  Actual Average Record
Temperature  
Mean Temperature 88 °F -  
Max Temperature 100 °F 104 °F 116 °F (1981)
Min Temperature 77 °F 77 °F 63 °F (1956)
Cooling Degree Days 24    
Growing Degree Days 38 (Base 50)    
Moisture  
Dew Point 70 °F    
Average Humidity 56    
Maximum Humidity 84    
Minimum Humidity 34    
Precipitation  
Precipitation 0.00 in - - ()
Sea Level Pressure  
Sea Level Pressure 29.74 in    
Wind  
Wind Speed 3 mph (WNW)    
Max Wind Speed 8 mph    
Max Gust Speed -    
Visibility 10 miles    
Events      
Averages and records for this station are not official NWS values.
T = Trace of Precipitation, MM = Missing Value Source: NWS Daily Summary

Daily Weather History Graph

Daily Weather History Graph

Search for Another Location

Airport or City:

Trip Planner

Search our weather history database for the weather conditions in past years. The results will help you decide how hot, cold, wet, or windy it might be!

Date:

Astronomy

Aug. 27, 2013 Rise Set
Actual Time 6:13 AM PDT 7:12 PM PDT
Civil Twilight 5:48 AM PDT 7:38 PM PDT
Nautical Twilight 5:18 AM PDT 8:08 PM PDT
Astronomical Twilight 4:47 AM PDT 8:39 PM PDT
Moon 11:33 PM PDT (8/27) 12:51 PM PDT (8/27)
Length of Visible Light 13h 49m
Length of Day
12h 59m
Waning Gibbous, 56% of the Moon is Illuminated
Aug 27
Waning Gibbous
Aug 28
Last Quarter
Sep 5
New
Sep 12
First Quarter
Sep 19
Full

Hourly Weather History & Observations

Time (PDT) Temp. Heat Index Dew Point Humidity Pressure Visibility Wind Dir Wind Speed Gust Speed Precip Events Conditions
12:53 AM 80.1 °F 84.5 °F 73.9 °F 81% 29.80 in 10.0 mi West 3.5 mph - N/A   Clear
1:53 AM 79.0 °F - 72.0 °F 79% 29.78 in 10.0 mi West 5.8 mph - N/A   Clear
2:53 AM 79.0 °F - 71.1 °F 77% 29.77 in 10.0 mi Calm Calm - N/A   Clear
3:53 AM 79.0 °F - 72.0 °F 79% 29.76 in 10.0 mi Calm Calm - N/A   Clear
4:53 AM 78.1 °F - 72.0 °F 81% 29.76 in 10.0 mi Calm Calm - N/A   Clear
5:53 AM 77.0 °F - 72.0 °F 84% 29.76 in 10.0 mi West 5.8 mph - N/A   Clear
6:53 AM 78.1 °F - 72.0 °F 81% 29.78 in 10.0 mi Calm Calm - N/A   Clear
7:53 AM 82.9 °F 87.5 °F 71.1 °F 67% 29.80 in 10.0 mi Calm Calm - N/A   Clear
8:53 AM 84.9 °F 92.1 °F 73.9 °F 69% 29.81 in 10.0 mi NNW 4.6 mph - N/A   Clear
9:53 AM 89.1 °F 96.0 °F 72.0 °F 57% 29.81 in 10.0 mi Calm Calm - N/A   Clear
10:53 AM 91.9 °F 98.4 °F 71.1 °F 50% 29.79 in 10.0 mi WNW 3.5 mph - N/A   Clear
11:53 AM 93.0 °F 97.4 °F 68.0 °F 44% 29.78 in 10.0 mi Calm Calm - N/A   Clear
12:53 PM 95.0 °F 100.7 °F 69.1 °F 43% 29.76 in 10.0 mi Variable 6.9 mph - N/A   Clear
1:53 PM 98.1 °F 101.8 °F 66.0 °F 35% 29.74 in 10.0 mi North 6.9 mph - N/A   Clear
2:53 PM 98.1 °F 103.0 °F 68.0 °F 37% 29.71 in 10.0 mi ENE 8.1 mph - N/A   Clear
3:53 PM 99.0 °F 104.2 °F 68.0 °F 36% 29.69 in 10.0 mi SE 5.8 mph - N/A   Clear
4:53 PM 100.0 °F 104.9 °F 66.9 °F 34% 29.67 in 10.0 mi Variable 3.5 mph - N/A   Clear
5:53 PM 99.0 °F 103.5 °F 66.9 °F 35% 29.65 in 10.0 mi NNW 4.6 mph - N/A   Clear
6:53 PM 97.0 °F 101.0 °F 66.9 °F 37% 29.67 in 10.0 mi West 3.5 mph - N/A   Clear
7:53 PM 96.1 °F 99.9 °F 66.9 °F 38% 29.67 in 10.0 mi Calm Calm - N/A   Clear
8:53 PM 93.0 °F 99.0 °F 70.0 °F 47% 29.69 in 10.0 mi Calm Calm - N/A   Clear
9:53 PM 91.9 °F 97.4 °F 70.0 °F 48% 29.69 in 10.0 mi SSW 5.8 mph - N/A   Clear
10:53 PM 89.1 °F 95.0 °F 71.1 °F 55% 29.69 in 10.0 mi WSW 3.5 mph - N/A   Clear
11:53 PM 90.0 °F 95.4 °F 70.0 °F 52% 29.69 in 10.0 mi Calm Calm - N/A   Clear